Find OneWeb SL0130

NORAD ID: 47272 Int'l Des: 2020-100 Owner: ONEWEB Country: UK Constellation: oneweb operational
LEOCIRCULARPOLARONEWEB_TYPE

当前视图

正在加载3D地球...

About OneWeb SL0130

OneWeb SL0130 (NORAD 47272) is a oneweb constellation satellite launched Dec 18, 2020 by ONEWEB of UK. It operates in LEO, CIRCULAR, POLAR, ONEWEB_TYPE orbit with a mass of 148.00 kg.

关于 OneWeb SL0130

正在加载描述...

即将过境

Passes for default location (London). Set your location on the main map for personalized predictions.

高度历史

Loading altitude history...

两行轨道根数

1 47272U 20100Q 26171.47329965 .00000205 00000-0 53471-3 0 9997
2 47272 87.8942 350.0166 0001893 93.9116 266.2229 13.12443393265132
Epoch: Jun 20, 2026 • Age: 17 hours

当前状态

高度 1225.2 km
速度 7.25 km/s
星下点 74.28°N, 24.91°E
发射日期 Dec 18, 2020
运行时间 5.5 years
类型 internet

技术详情

分类 Payload
质量 148.00 kg
干质量 140.00 kg
总质量 148.00 kg
长度 1.30 m
直径 1.00 m
跨度 5.00 m
形状 Trapezoid+2 pan
制造商 ONEWUS
平台类型 ARROW
阶段状态 In Orbit
所有者/国家 ONEWEB/UK

Most Searched